Precipitable_Water
1.05 1.06 1.08 1.07 1.04 0.99 0.96 0.94 0.91 0.90 0.89 0.89 0.88 0.90 0.92 0.92 0.91 0.92 0.95 0.95 0.98 0.99 1.00 1.02 1.06 1.08 1.10 1.10 1.10 1.15 1.21 1.23 1.27 1.26 1.18 1.14 1.15 1.16 1.18 1.22 1.19 1.21 1.24 1.25 1.30 1.31 1.30 1.30 1.29 1.28 1.31 1.33 1.32 1.31 1.30 1.30 1.36 1.35 1.26 1.15 1.04 0.97 0.92 0.88 0.81 0.88 1.04 1.17 1.18 1.23 1.37 1.37 1.30 1.34 1.34 1.39 1.45 1.51 1.53 1.54 1.52 1.46 1.41 1.36 1.30
1.08 1.10 1.10 1.09 1.05 1.01 0.96 0.92 0.89 0.88 0.86 0.88 0.87 0.88 0.90 0.90 0.91 0.92 0.90 0.93 0.96 0.97 0.99 1.04 1.06 1.07 1.07 1.09 1.11 1.15 1.18 1.20 1.23 1.27 1.24 1.14 1.10 1.13 1.13 1.14 1.15 1.15 1.16 1.15 1.20 1.25 1.26 1.25 1.28 1.30 1.31 1.29 1.32 1.31 1.29 1.28 1.31 1.34 1.30 1.19 1.07 0.98 0.99 0.90 0.88 0.90 0.91 1.06 1.06 1.20 1.28 1.39 1.28 1.40 1.34 1.36 1.41 1.46 1.47 1.48 1.49 1.45 1.40 1.35 1.31
1.10 1.10 1.07 1.06 1.05 1.02 0.97 0.92 0.89 0.88 0.87 0.86 0.86 0.88 0.90 0.91 0.92 0.89 0.89 0.90 0.95 0.94 0.94 0.97 1.01 1.04 1.04 1.06 1.09 1.12 1.14 1.15 1.17 1.18 1.20 1.16 1.09 1.10 1.12 1.13 1.12 1.11 1.10 1.11 1.16 1.22 1.23 1.23 1.25 1.31 1.34 1.30 1.32 1.32 1.31 1.27 1.29 1.31 1.32 1.30 1.15 1.05 1.03 1.01 0.93 0.88 0.92 0.97 1.10 1.10 1.17 1.31 1.33 1.33 1.38 1.40 1.40 1.42 1.39 1.43 1.43 1.41 1.34 1.32 1.30
1.10 1.09 1.06 1.05 1.03 0.98 0.94 0.92 0.88 0.86 0.83 0.84 0.84 0.87 0.89 0.89 0.90 0.88 0.89 0.90 0.88 0.89 0.90 0.91 0.94 0.96 0.98 1.01 1.03 1.06 1.08 1.10 1.11 1.15 1.15 1.13 1.08 1.07 1.09 1.10 1.11 1.11 1.10 1.10 1.13 1.16 1.18 1.20 1.24 1.30 1.33 1.29 1.30 1.32 1.31 1.29 1.27 1.29 1.33 1.35 1.26 1.11 1.04 1.00 0.96 0.90 0.94 0.91 1.03 1.03 1.12 1.21 1.34 1.42 1.40 1.37 1.33 1.36 1.39 1.39 1.37 1.33 1.31 1.31 1.28
1.09 1.08 1.07 1.01 0.95 0.92 0.90 0.89 0.86 0.83 0.80 0.81 0.80 0.83 0.84 0.85 0.87 0.85 0.86 0.86 0.87 0.86 0.87 0.88 0.88 0.90 0.92 0.95 0.97 1.00 1.03 1.05 1.06 1.08 1.10 1.09 1.07 1.05 1.05 1.07 1.09 1.11 1.14 1.16 1.17 1.17 1.17 1.17 1.21 1.28 1.31 1.27 1.28 1.31 1.34 1.30 1.30 1.31 1.32 1.34 1.28 1.19 1.08 1.01 0.98 0.97 0.96 0.96 0.98 1.07 1.17 1.22 1.35 1.43 1.40 1.25 1.24 1.25 1.30 1.31 1.32 1.31 1.31 1.31 1.28
1.11 1.09 1.05 0.96 0.91 0.90 0.89 0.88 0.84 0.82 0.81 0.80 0.79 0.79 0.79 0.79 0.81 0.83 0.84 0.82 0.83 0.85 0.84 0.85 0.85 0.86 0.88 0.91 0.93 0.95 0.97 0.99 1.01 1.03 1.03 1.04 1.05 1.06 1.06 1.06 1.06 1.09 1.13 1.17 1.18 1.18 1.16 1.16 1.19 1.25 1.27 1.26 1.25 1.28 1.32 1.31 1.32 1.31 1.32 1.34 1.33 1.29 1.14 1.05 1.03 1.01 0.99 1.01 1.05 1.02 1.11 1.16 1.30 1.43 1.38 1.24 1.16 1.14 1.21 1.28 1.32 1.32 1.29 1.26 1.25
1.06 1.07 1.00 0.92 0.90 0.89 0.88 0.88 0.86 0.84 0.83 0.82 0.81 0.80 0.78 0.78 0.77 0.77 0.81 0.82 0.82 0.81 0.83 0.83 0.85 0.84 0.84 0.85 0.87 0.89 0.90 0.92 0.92 0.93 0.94 0.96 0.98 1.01 1.04 1.05 1.05 1.07 1.11 1.15 1.17 1.18 1.20 1.20 1.20 1.24 1.25 1.26 1.26 1.25 1.26 1.28 1.30 1.32 1.34 1.36 1.38 1.34 1.24 1.12 1.07 1.04 1.04 1.04 1.10 1.13 1.08 1.17 1.25 1.31 1.40 1.27 1.22 1.19 1.16 1.18 1.20 1.26 1.27 1.24 1.18
1.01 0.97 0.93 0.89 0.89 0.89 0.90 0.90 0.88 0.86 0.84 0.82 0.80 0.79 0.80 0.81 0.82 0.81 0.81 0.80 0.81 0.81 0.80 0.81 0.83 0.83 0.81 0.81 0.82 0.84 0.84 0.84 0.85 0.86 0.87 0.87 0.87 0.89 0.93 0.97 0.99 1.02 1.06 1.12 1.16 1.16 1.18 1.22 1.24 1.25 1.27 1.29 1.29 1.28 1.29 1.26 1.28 1.28 1.33 1.34 1.36 1.36 1.32 1.25 1.14 1.06 1.03 1.02 1.01 1.06 1.11 1.13 1.20 1.32 1.38 1.26 1.14 1.13 1.19 1.17 1.12 1.15 1.16 1.16 1.12
0.96 0.92 0.88 0.87 0.87 0.88 0.89 0.89 0.88 0.86 0.84 0.82 0.81 0.81 0.82 0.83 0.84 0.84 0.83 0.81 0.81 0.80 0.80 0.79 0.78 0.77 0.78 0.78 0.78 0.79 0.79 0.80 0.81 0.81 0.81 0.83 0.84 0.83 0.82 0.83 0.84 0.86 0.91 0.99 1.08 1.13 1.17 1.19 1.23 1.25 1.27 1.31 1.34 1.33 1.32 1.31 1.27 1.23 1.28 1.31 1.30 1.33 1.33 1.32 1.25 1.18 1.11 1.05 1.01 1.07 1.10 1.10 1.14 1.21 1.25 1.13 1.06 1.07 1.15 1.18 1.14 1.14 1.10 1.03 1.02
0.92 0.88 0.86 0.85 0.86 0.87 0.87 0.87 0.86 0.85 0.83 0.82 0.83 0.82 0.82 0.81 0.80 0.79 0.79 0.79 0.79 0.79 0.79 0.78 0.76 0.74 0.72 0.73 0.75 0.76 0.76 0.77 0.79 0.79 0.79 0.80 0.81 0.81 0.81 0.81 0.79 0.78 0.78 0.81 0.87 0.96 1.03 1.11 1.19 1.26 1.28 1.28 1.30 1.32 1.34 1.35 1.34 1.31 1.30 1.30 1.29 1.31 1.33 1.32 1.29 1.26 1.19 1.08 1.02 1.03 1.06 1.06 1.12 1.18 1.19 1.20 1.17 1.14 1.12 1.12 1.07 1.05 1.02 0.97 0.95
0.88 0.85 0.83 0.84 0.85 0.86 0.85 0.85 0.84 0.82 0.83 0.83 0.84 0.82 0.81 0.80 0.78 0.76 0.77 0.78 0.78 0.78 0.77 0.75 0.73 0.72 0.69 0.68 0.69 0.71 0.73 0.76 0.77 0.77 0.77 0.78 0.78 0.77 0.76 0.77 0.77 0.73 0.71 0.72 0.73 0.77 0.85 0.91 0.96 1.08 1.21 1.26 1.29 1.31 1.32 1.36 1.40 1.38 1.36 1.35 1.34 1.34 1.33 1.33 1.31 1.30 1.21 1.13 1.10 1.08 1.07 1.07 1.13 1.19 1.19 1.16 1.15 1.12 1.11 1.12 1.08 1.03 0.96 0.90 0.83
0.84 0.82 0.82 0.83 0.83 0.84 0.84 0.84 0.82 0.82 0.82 0.81 0.82 0.83 0.81 0.79 0.75 0.73 0.74 0.75 0.76 0.76 0.72 0.69 0.69 0.68 0.67 0.66 0.66 0.69 0.70 0.73 0.75 0.75 0.74 0.75 0.76 0.75 0.74 0.71 0.71 0.70 0.67 0.66 0.66 0.66 0.69 0.75 0.81 0.85 0.92 1.02 1.15 1.25 1.30 1.32 1.34 1.35 1.37 1.36 1.36 1.39 1.41 1.38 1.34 1.30 1.25 1.19 1.15 1.11 1.13 1.12 1.15 1.16 1.16 1.15 1.14 1.14 1.13 1.11 1.09 1.03 0.97 0.91 0.86
0.84 0.82 0.83 0.83 0.84 0.84 0.84 0.83 0.82 0.82 0.82 0.81 0.82 0.81 0.79 0.75 0.70 0.69 0.69 0.73 0.74 0.71 0.68 0.67 0.66 0.67 0.66 0.64 0.65 0.68 0.70 0.70 0.71 0.71 0.72 0.73 0.74 0.74 0.73 0.72 0.69 0.66 0.65 0.64 0.64 0.64 0.65 0.66 0.69 0.74 0.78 0.86 0.95 1.07 1.20 1.27 1.32 1.33 1.34 1.35 1.35 1.35 1.36 1.40 1.43 1.38 1.34 1.28 1.19 1.15 1.17 1.18 1.18 1.16 1.20 1.19 1.19 1.10 1.12 1.13 1.09 1.03 0.98 0.90 0.82
0.81 0.80 0.82 0.84 0.84 0.84 0.83 0.82 0.81 0.81 0.81 0.80 0.79 0.76 0.71 0.67 0.66 0.68 0.70 0.71 0.69 0.67 0.67 0.66 0.66 0.65 0.66 0.66 0.66 0.69 0.70 0.70 0.67 0.67 0.69 0.71 0.73 0.74 0.74 0.74 0.72 0.69 0.67 0.67 0.66 0.67 0.67 0.66 0.66 0.67 0.73 0.80 0.86 0.89 0.94 1.07 1.19 1.25 1.27 1.31 1.33 1.33 1.34 1.37 1.41 1.42 1.42 1.35 1.24 1.17 1.25 1.24 1.16 1.19 1.24 1.24 1.15 1.09 1.09 1.08 1.07 1.01 0.94 0.86 0.85
0.79 0.80 0.81 0.82 0.81 0.82 0.80 0.79 0.78 0.78 0.77 0.75 0.72 0.67 0.64 0.63 0.63 0.64 0.64 0.63 0.63 0.63 0.63 0.63 0.65 0.66 0.66 0.66 0.66 0.68 0.70 0.70 0.66 0.65 0.66 0.69 0.72 0.72 0.73 0.73 0.72 0.71 0.72 0.73 0.72 0.72 0.74 0.75 0.72 0.70 0.71 0.75 0.80 0.81 0.83 0.92 1.05 1.14 1.18 1.21 1.29 1.32 1.33 1.34 1.37 1.45 1.45 1.41 1.33 1.33 1.31 1.30 1.27 1.26 1.26 1.28 1.27 1.23 1.21 1.12 1.09 1.01 0.93 0.89 0.86
0.78 0.79 0.80 0.81 0.81 0.80 0.78 0.77 0.76 0.74 0.73 0.70 0.66 0.63 0.61 0.61 0.60 0.61 0.62 0.63 0.64 0.63 0.64 0.65 0.64 0.62 0.64 0.66 0.68 0.68 0.69 0.69 0.65 0.63 0.63 0.66 0.70 0.71 0.71 0.71 0.71 0.72 0.73 0.75 0.75 0.75 0.77 0.79 0.78 0.75 0.74 0.75 0.79 0.81 0.85 0.92 0.98 1.04 1.09 1.15 1.20 1.28 1.32 1.32 1.36 1.48 1.52 1.47 1.43 1.40 1.33 1.30 1.28 1.27 1.29 1.28 1.29 1.25 1.18 1.13 1.07 0.97 0.89 0.83 0.72
0.76 0.78 0.78 0.78 0.77 0.76 0.75 0.73 0.72 0.71 0.69 0.65 0.61 0.60 0.59 0.59 0.60 0.62 0.61 0.61 0.61 0.61 0.62 0.63 0.64 0.62 0.63 0.68 0.68 0.68 0.67 0.66 0.64 0.62 0.61 0.63 0.66 0.67 0.68 0.69 0.70 0.71 0.72 0.76 0.77 0.77 0.77 0.78 0.80 0.80 0.79 0.77 0.80 0.85 0.91 0.96 0.99 1.02 1.06 1.09 1.13 1.19 1.27 1.34 1.37 1.42 1.47 1.47 1.46 1.41 1.35 1.33 1.32 1.32 1.30 1.31 1.27 1.23 1.14 1.05 0.97 0.94 0.85 0.72 0.64
0.76 0.76 0.75 0.75 0.75 0.74 0.73 0.73 0.71 0.69 0.66 0.62 0.60 0.60 0.61 0.62 0.62 0.63 0.61 0.60 0.60 0.61 0.62 0.63 0.65 0.63 0.62 0.67 0.70 0.68 0.66 0.65 0.63 0.62 0.61 0.62 0.65 0.65 0.66 0.67 0.68 0.70 0.72 0.75 0.78 0.79 0.79 0.79 0.80 0.81 0.81 0.82 0.85 0.90 0.97 1.01 0.99 1.00 1.04 1.05 1.05 1.08 1.18 1.27 1.34 1.36 1.45 1.47 1.41 1.38 1.34 1.33 1.35 1.36 1.33 1.30 1.24 1.20 1.11 1.01 1.00 0.92 0.76 0.65 0.58
0.74 0.74 0.75 0.75 0.75 0.75 0.74 0.73 0.71 0.67 0.63 0.62 0.62 0.61 0.62 0.62 0.63 0.64 0.62 0.61 0.60 0.61 0.62 0.62 0.63 0.63 0.62 0.65 0.71 0.71 0.68 0.65 0.64 0.62 0.60 0.62 0.65 0.67 0.66 0.66 0.66 0.68 0.70 0.72 0.76 0.78 0.80 0.81 0.80 0.81 0.83 0.85 0.88 0.93 0.98 1.01 1.03 1.04 1.08 1.10 1.09 1.12 1.19 1.27 1.31 1.31 1.35 1.33 1.28 1.28 1.30 1.32 1.32 1.31 1.27 1.24 1.23 1.19 1.16 1.09 0.98 0.80 0.66 0.61 0.57
0.78 0.78 0.77 0.76 0.76 0.75 0.74 0.71 0.68 0.65 0.63 0.63 0.63 0.64 0.65 0.65 0.64 0.63 0.63 0.62 0.61 0.61 0.62 0.62 0.61 0.62 0.64 0.67 0.71 0.72 0.70 0.67 0.64 0.62 0.60 0.61 0.65 0.67 0.67 0.65 0.64 0.66 0.70 0.72 0.72 0.75 0.78 0.81 0.83 0.82 0.85 0.88 0.90 0.93 0.97 1.02 1.06 1.10 1.10 1.11 1.14 1.18 1.31 1.34 1.36 1.36 1.27 1.24 1.21 1.24 1.22 1.22 1.23 1.24 1.24 1.24 1.21 1.16 1.09 0.97 0.85 0.75 0.66 0.61 0.56
0.80 0.77 0.76 0.74 0.73 0.71 0.71 0.69 0.65 0.64 0.63 0.63 0.64 0.66 0.66 0.65 0.65 0.63 0.61 0.62 0.61 0.60 0.61 0.61 0.62 0.62 0.65 0.70 0.72 0.74 0.73 0.70 0.67 0.63 0.60 0.61 0.64 0.65 0.65 0.65 0.68 0.69 0.70 0.72 0.74 0.74 0.76 0.80 0.84 0.87 0.88 0.89 0.89 0.92 0.97 1.02 1.06 1.10 1.11 1.19 1.30 1.36 1.37 1.30 1.28 1.27 1.23 1.19 1.17 1.17 1.19 1.19 1.18 1.19 1.16 1.15 1.11 1.01 0.91 0.87 0.83 0.76 0.68 0.60 0.52
0.75 0.73 0.71 0.70 0.70 0.69 0.68 0.67 0.65 0.64 0.64 0.65 0.65 0.65 0.67 0.67 0.65 0.63 0.62 0.61 0.59 0.57 0.58 0.59 0.60 0.60 0.63 0.69 0.73 0.76 0.78 0.76 0.70 0.65 0.62 0.61 0.63 0.66 0.65 0.67 0.71 0.71 0.72 0.74 0.74 0.74 0.77 0.80 0.84 0.89 0.92 0.92 0.91 0.93 0.97 1.01 1.06 1.12 1.20 1.25 1.30 1.31 1.27 1.26 1.25 1.23 1.21 1.18 1.16 1.13 1.11 1.08 1.08 1.08 1.05 0.99 0.91 0.88 0.86 0.82 0.77 0.72 0.66 0.58 0.48
0.71 0.70 0.69 0.68 0.68 0.67 0.67 0.65 0.64 0.65 0.65 0.66 0.65 0.64 0.66 0.66 0.65 0.64 0.62 0.60 0.58 0.56 0.56 0.58 0.58 0.56 0.60 0.67 0.73 0.77 0.78 0.77 0.72 0.67 0.64 0.62 0.63 0.66 0.67 0.68 0.72 0.75 0.73 0.72 0.73 0.73 0.77 0.83 0.89 0.93 0.96 0.97 0.98 0.98 0.98 1.01 1.05 1.10 1.18 1.24 1.23 1.24 1.23 1.23 1.20 1.16 1.15 1.13 1.09 1.04 1.01 0.99 0.95 0.91 0.88 0.86 0.85 0.83 0.79 0.72 0.67 0.62 0.55 0.48 0.44
0.70 0.68 0.67 0.66 0.66 0.65 0.65 0.65 0.65 0.65 0.66 0.66 0.64 0.63 0.63 0.64 0.63 0.62 0.61 0.59 0.58 0.57 0.57 0.58 0.55 0.55 0.58 0.65 0.71 0.75 0.78 0.77 0.73 0.70 0.65 0.62 0.63 0.66 0.68 0.69 0.71 0.74 0.75 0.73 0.76 0.77 0.78 0.81 0.89 0.95 0.97 1.00 1.01 0.99 0.96 0.98 1.03 1.07 1.12 1.19 1.23 1.21 1.15 1.14 1.15 1.12 1.08 1.03 0.98 0.94 0.91 0.89 0.87 0.85 0.82 0.80 0.77 0.72 0.67 0.63 0.58 0.53 0.47 0.44 0.42
0.67 0.65 0.64 0.64 0.64 0.65 0.65 0.65 0.65 0.65 0.66 0.65 0.62 0.61 0.61 0.62 0.61 0.63 0.63 0.61 0.60 0.59 0.58 0.58 0.55 0.56 0.58 0.62 0.66 0.68 0.71 0.74 0.73 0.71 0.66 0.63 0.64 0.67 0.69 0.69 0.71 0.75 0.74 0.75 0.77 0.79 0.82 0.85 0.90 0.97 0.98 0.99 0.97 0.95 0.91 0.88 0.89 0.94 1.01 1.08 1.13 1.13 1.09 1.07 1.08 1.05 1.00 0.97 0.95 0.93 0.91 0.89 0.85 0.81 0.79 0.75 0.71 0.64 0.58 0.53 0.50 0.47 0.45 0.44 0.41
0.64 0.64 0.64 0.65 0.65 0.66 0.65 0.65 0.66 0.66 0.66 0.65 0.62 0.61 0.59 0.60 0.60 0.61 0.62 0.62 0.61 0.60 0.60 0.60 0.59 0.58 0.58 0.58 0.61 0.64 0.71 0.75 0.74 0.71 0.66 0.64 0.65 0.68 0.70 0.71 0.72 0.76 0.78 0.77 0.77 0.79 0.82 0.85 0.90 0.96 0.97 0.96 0.93 0.92 0.93 0.92 0.86 0.86 0.93 1.01 1.01 1.00 1.01 1.01 1.00 1.00 0.97 0.95 0.93 0.90 0.88 0.85 0.82 0.80 0.76 0.68 0.59 0.53 0.49 0.44 0.42 0.41 0.41 0.40 0.38
0.65 0.65 0.65 0.66 0.67 0.66 0.65 0.65 0.65 0.65 0.63 0.62 0.61 0.60 0.60 0.59 0.59 0.60 0.61 0.61 0.62 0.62 0.62 0.62 0.61 0.58 0.55 0.56 0.61 0.65 0.68 0.73 0.72 0.70 0.65 0.63 0.66 0.68 0.70 0.71 0.74 0.76 0.78 0.78 0.79 0.80 0.81 0.84 0.86 0.92 0.96 0.96 0.94 0.91 0.93 0.94 0.91 0.87 0.85 0.86 0.86 0.87 0.86 0.86 0.85 0.85 0.86 0.85 0.85 0.86 0.85 0.82 0.78 0.72 0.64 0.58 0.51 0.47 0.44 0.41 0.40 0.39 0.39 0.39 0.36
0.64 0.65 0.67 0.67 0.67 0.66 0.65 0.65 0.64 0.63 0.62 0.60 0.57 0.57 0.57 0.57 0.58 0.60 0.61 0.62 0.62 0.62 0.62 0.60 0.58 0.57 0.54 0.57 0.61 0.63 0.66 0.70 0.68 0.64 0.62 0.61 0.65 0.68 0.70 0.71 0.72 0.75 0.77 0.79 0.79 0.80 0.80 0.83 0.85 0.88 0.95 0.97 0.97 0.93 0.93 0.97 0.99 0.92 0.85 0.81 0.80 0.84 0.85 0.84 0.81 0.79 0.80 0.81 0.81 0.80 0.78 0.74 0.66 0.59 0.53 0.48 0.45 0.44 0.45 0.41 0.39 0.38 0.39 0.38 0.34
0.68 0.68 0.69 0.69 0.68 0.68 0.68 0.67 0.65 0.62 0.59 0.58 0.57 0.55 0.54 0.55 0.59 0.63 0.66 0.67 0.64 0.60 0.60 0.62 0.63 0.62 0.61 0.61 0.64 0.66 0.66 0.63 0.63 0.65 0.63 0.64 0.67 0.69 0.70 0.72 0.74 0.76 0.80 0.81 0.79 0.78 0.78 0.79 0.79 0.81 0.85 0.90 0.93 0.92 0.92 0.95 0.95 0.93 0.90 0.90 0.90 0.89 0.88 0.85 0.81 0.81 0.80 0.79 0.75 0.72 0.69 0.63 0.54 0.48 0.45 0.42 0.41 0.41 0.42 0.40 0.40 0.37 0.37 0.36 0.33
0.67 0.68 0.70 0.70 0.70 0.70 0.69 0.66 0.63 0.60 0.56 0.54 0.54 0.55 0.59 0.60 0.64 0.64 0.63 0.67 0.68 0.66 0.63 0.60 0.64 0.65 0.62 0.64 0.64 0.58 0.56 0.60 0.63 0.63 0.63 0.66 0.71 0.73 0.75 0.76 0.76 0.77 0.78 0.79 0.77 0.74 0.74 0.75 0.75 0.74 0.78 0.84 0.88 0.89 0.88 0.89 0.89 0.89 0.88 0.89 0.89 0.88 0.86 0.82 0.78 0.74 0.73 0.69 0.66 0.62 0.56 0.51 0.46 0.44 0.43 0.41 0.41 0.41 0.40 0.37 0.36 0.37 0.33 0.33 0.32
0.67 0.68 0.69 0.69 0.70 0.69 0.68 0.64 0.60 0.57 0.55 0.54 0.53 0.51 0.53 0.59 0.65 0.66 0.65 0.65 0.66 0.66 0.64 0.63 0.62 0.60 0.58 0.56 0.61 0.63 0.62 0.62 0.62 0.63 0.65 0.68 0.71 0.73 0.74 0.74 0.74 0.74 0.74 0.72 0.70 0.70 0.70 0.70 0.72 0.74 0.76 0.79 0.83 0.86 0.86 0.84 0.83 0.81 0.80 0.81 0.80 0.78 0.75 0.71 0.68 0.67 0.63 0.59 0.54 0.50 0.47 0.45 0.44 0.45 0.44 0.43 0.42 0.41 0.40 0.38 0.37 0.37 0.34 0.33 0.32
0.66 0.67 0.68 0.69 0.69 0.68 0.65 0.61 0.57 0.55 0.54 0.54 0.52 0.51 0.50 0.52 0.59 0.65 0.65 0.65 0.65 0.64 0.63 0.63 0.62 0.58 0.56 0.55 0.54 0.55 0.58 0.59 0.60 0.63 0.66 0.68 0.69 0.71 0.72 0.72 0.72 0.71 0.69 0.67 0.64 0.65 0.66 0.67 0.69 0.72 0.76 0.77 0.80 0.82 0.81 0.79 0.76 0.73 0.70 0.70 0.67 0.68 0.66 0.63 0.62 0.60 0.58 0.55 0.51 0.50 0.48 0.47 0.48 0.47 0.46 0.44 0.44 0.42 0.41 0.38 0.38 0.37 0.35 0.35 0.34
0.67 0.67 0.67 0.67 0.66 0.65 0.62 0.58 0.56 0.55 0.53 0.53 0.53 0.51 0.48 0.51 0.52 0.56 0.62 0.64 0.64 0.63 0.62 0.62 0.60 0.58 0.54 0.52 0.53 0.53 0.56 0.57 0.60 0.65 0.68 0.69 0.68 0.67 0.68 0.68 0.68 0.68 0.64 0.61 0.59 0.59 0.58 0.59 0.61 0.64 0.68 0.69 0.69 0.68 0.70 0.71 0.69 0.65 0.64 0.64 0.63 0.63 0.64 0.63 0.61 0.57 0.56 0.55 0.54 0.51 0.51 0.50 0.50 0.49 0.47 0.46 0.44 0.42 0.42 0.41 0.42 0.40 0.38 0.35 0.34
0.67 0.66 0.65 0.64 0.63 0.61 0.59 0.57 0.55 0.54 0.53 0.53 0.51 0.48 0.48 0.51 0.52 0.55 0.55 0.56 0.59 0.61 0.63 0.62 0.59 0.56 0.53 0.51 0.50 0.54 0.57 0.58 0.60 0.66 0.70 0.70 0.70 0.70 0.66 0.63 0.63 0.61 0.60 0.58 0.55 0.52 0.51 0.49 0.52 0.54 0.56 0.58 0.57 0.57 0.60 0.62 0.63 0.62 0.62 0.63 0.63 0.62 0.61 0.61 0.58 0.56 0.54 0.53 0.52 0.52 0.52 0.51 0.50 0.49 0.48 0.47 0.46 0.45 0.44 0.43 0.42 0.39 0.37 0.35 0.33
0.66 0.65 0.64 0.63 0.62 0.61 0.59 0.56 0.54 0.52 0.52 0.50 0.47 0.45 0.45 0.47 0.50 0.52 0.53 0.53 0.53 0.52 0.54 0.56 0.56 0.54 0.51 0.50 0.52 0.55 0.58 0.59 0.60 0.64 0.68 0.68 0.68 0.68 0.66 0.60 0.54 0.53 0.56 0.54 0.49 0.46 0.44 0.44 0.46 0.49 0.52 0.53 0.56 0.58 0.58 0.59 0.58 0.58 0.58 0.58 0.59 0.59 0.59 0.57 0.56 0.56 0.55 0.52 0.50 0.50 0.51 0.51 0.50 0.49 0.49 0.47 0.45 0.44 0.44 0.42 0.40 0.39 0.37 0.35 0.34
0.65 0.63 0.63 0.62 0.61 0.59 0.56 0.55 0.53 0.52 0.51 0.49 0.48 0.46 0.47 0.48 0.48 0.49 0.52 0.54 0.54 0.53 0.53 0.53 0.51 0.51 0.50 0.49 0.50 0.55 0.58 0.61 0.61 0.62 0.64 0.64 0.63 0.64 0.58 0.54 0.49 0.47 0.48 0.48 0.46 0.47 0.48 0.49 0.51 0.53 0.55 0.57 0.58 0.58 0.60 0.61 0.61 0.59 0.58 0.57 0.56 0.56 0.57 0.58 0.58 0.57 0.57 0.55 0.53 0.52 0.51 0.51 0.51 0.49 0.49 0.48 0.46 0.45 0.44 0.42 0.40 0.39 0.38 0.37 0.37
0.63 0.62 0.61 0.60 0.59 0.57 0.56 0.55 0.53 0.53 0.51 0.49 0.48 0.47 0.47 0.46 0.46 0.47 0.49 0.52 0.53 0.53 0.52 0.51 0.49 0.48 0.48 0.48 0.47 0.50 0.56 0.60 0.60 0.59 0.58 0.58 0.58 0.58 0.55 0.53 0.47 0.44 0.45 0.44 0.46 0.49 0.50 0.52 0.55 0.56 0.57 0.58 0.59 0.61 0.62 0.63 0.63 0.63 0.62 0.61 0.61 0.60 0.59 0.60 0.60 0.59 0.58 0.57 0.56 0.54 0.53 0.53 0.53 0.52 0.50 0.47 0.47 0.46 0.44 0.43 0.42 0.41 0.40 0.39 0.39
0.63 0.61 0.59 0.59 0.58 0.58 0.56 0.55 0.54 0.53 0.51 0.48 0.46 0.46 0.45 0.42 0.40 0.42 0.44 0.48 0.51 0.51 0.50 0.50 0.48 0.46 0.43 0.42 0.45 0.46 0.49 0.54 0.55 0.54 0.52 0.51 0.50 0.50 0.50 0.50 0.47 0.42 0.42 0.44 0.48 0.51 0.53 0.55 0.58 0.59 0.61 0.63 0.64 0.65 0.65 0.63 0.64 0.63 0.63 0.62 0.62 0.62 0.62 0.61 0.61 0.61 0.60 0.59 0.58 0.57 0.55 0.54 0.55 0.54 0.52 0.48 0.46 0.45 0.44 0.44 0.42 0.40 0.40 0.41 0.41
0.61 0.60 0.59 0.58 0.59 0.58 0.57 0.56 0.55 0.53 0.50 0.47 0.44 0.43 0.42 0.41 0.39 0.39 0.41 0.46 0.47 0.47 0.47 0.47 0.46 0.46 0.45 0.44 0.43 0.45 0.45 0.44 0.43 0.42 0.42 0.43 0.45 0.46 0.48 0.48 0.47 0.43 0.42 0.44 0.48 0.53 0.56 0.57 0.61 0.64 0.65 0.66 0.66 0.66 0.66 0.64 0.64 0.64 0.64 0.63 0.62 0.62 0.61 0.61 0.60 0.60 0.59 0.58 0.58 0.58 0.57 0.56 0.55 0.55 0.53 0.50 0.48 0.47 0.46 0.45 0.43 0.41 0.41 0.41 0.42
0.59 0.59 0.59 0.59 0.59 0.59 0.58 0.56 0.55 0.53 0.50 0.47 0.44 0.43 0.43 0.43 0.41 0.39 0.39 0.43 0.44 0.44 0.45 0.44 0.43 0.44 0.45 0.43 0.39 0.36 0.33 0.34 0.36 0.39 0.40 0.39 0.40 0.43 0.45 0.47 0.47 0.47 0.45 0.44 0.48 0.53 0.57 0.59 0.62 0.63 0.64 0.64 0.65 0.66 0.66 0.65 0.64 0.64 0.64 0.63 0.62 0.61 0.61 0.60 0.60 0.59 0.58 0.58 0.58 0.58 0.58 0.57 0.56 0.55 0.53 0.51 0.49 0.48 0.46 0.45 0.45 0.45 0.44 0.44 0.44
0.59 0.59 0.59 0.59 0.59 0.59 0.58 0.57 0.56 0.54 0.52 0.49 0.46 0.45 0.45 0.44 0.43 0.42 0.40 0.41 0.42 0.42 0.43 0.42 0.42 0.43 0.44 0.42 0.39 0.35 0.31 0.31 0.33 0.36 0.38 0.38 0.38 0.40 0.42 0.44 0.47 0.49 0.50 0.49 0.48 0.51 0.55 0.58 0.61 0.63 0.63 0.63 0.64 0.65 0.64 0.64 0.64 0.63 0.63 0.63 0.62 0.61 0.61 0.61 0.60 0.59 0.59 0.59 0.58 0.57 0.57 0.56 0.55 0.53 0.51 0.50 0.50 0.49 0.48 0.48 0.48 0.47 0.46 0.46 0.46
0.58 0.58 0.58 0.59 0.59 0.59 0.58 0.57 0.57 0.56 0.54 0.51 0.48 0.46 0.46 0.46 0.44 0.42 0.39 0.40 0.40 0.41 0.41 0.41 0.42 0.44 0.44 0.43 0.41 0.39 0.34 0.32 0.32 0.34 0.36 0.37 0.37 0.38 0.41 0.43 0.46 0.49 0.51 0.50 0.49 0.48 0.52 0.56 0.59 0.61 0.61 0.61 0.62 0.63 0.63 0.63 0.62 0.62 0.62 0.61 0.61 0.61 0.60 0.60 0.60 0.59 0.58 0.58 0.57 0.57 0.56 0.55 0.54 0.53 0.52 0.51 0.49 0.48 0.47 0.47 0.47 0.46 0.45 0.45 0.47
0.59 0.58 0.59 0.60 0.60 0.59 0.58 0.58 0.58 0.56 0.55 0.53 0.50 0.49 0.48 0.47 0.45 0.42 0.38 0.36 0.37 0.38 0.39 0.40 0.42 0.43 0.43 0.43 0.42 0.42 0.39 0.35 0.32 0.32 0.33 0.34 0.34 0.36 0.38 0.41 0.44 0.47 0.49 0.50 0.50 0.49 0.51 0.54 0.56 0.59 0.59 0.60 0.61 0.61 0.62 0.62 0.62 0.61 0.61 0.60 0.60 0.60 0.59 0.59 0.59 0.59 0.58 0.58 0.57 0.56 0.55 0.53 0.52 0.50 0.48 0.47 0.46 0.45 0.45 0.44 0.45 0.45 0.46 0.47 0.48
0.59 0.59 0.59 0.59 0.60 0.60 0.60 0.59 0.58 0.57 0.56 0.55 0.53 0.51 0.49 0.48 0.46 0.44 0.41 0.39 0.38 0.37 0.39 0.40 0.42 0.42 0.43 0.44 0.43 0.42 0.40 0.39 0.37 0.34 0.32 0.32 0.32 0.33 0.36 0.39 0.43 0.46 0.48 0.48 0.48 0.48 0.49 0.51 0.53 0.56 0.59 0.59 0.60 0.61 0.62 0.63 0.62 0.61 0.60 0.59 0.59 0.58 0.58 0.58 0.58 0.58 0.57 0.56 0.56 0.54 0.53 0.52 0.50 0.48 0.46 0.45 0.45 0.44 0.45 0.45 0.46 0.47 0.47 0.48 0.49
0.60 0.59 0.58 0.58 0.59 0.59 0.59 0.60 0.59 0.58 0.57 0.56 0.55 0.53 0.51 0.49 0.48 0.47 0.45 0.42 0.40 0.39 0.37 0.38 0.40 0.41 0.41 0.41 0.41 0.40 0.39 0.39 0.39 0.39 0.37 0.33 0.30 0.30 0.33 0.37 0.40 0.43 0.45 0.46 0.46 0.45 0.46 0.48 0.51 0.53 0.55 0.56 0.59 0.60 0.62 0.62 0.62 0.61 0.61 0.59 0.58 0.57 0.57 0.57 0.58 0.58 0.58 0.56 0.55 0.53 0.50 0.49 0.48 0.48 0.47 0.48 0.48 0.47 0.47 0.47 0.48 0.48 0.48 0.49 0.49
0.61 0.59 0.58 0.57 0.57 0.59 0.59 0.59 0.59 0.58 0.57 0.56 0.55 0.53 0.51 0.51 0.50 0.49 0.48 0.47 0.45 0.42 0.40 0.39 0.38 0.38 0.38 0.38 0.39 0.39 0.39 0.39 0.39 0.39 0.39 0.39 0.38 0.34 0.32 0.34 0.37 0.40 0.42 0.44 0.45 0.44 0.43 0.45 0.47 0.50 0.51 0.54 0.56 0.59 0.60 0.61 0.61 0.61 0.60 0.60 0.59 0.58 0.59 0.59 0.60 0.59 0.58 0.56 0.53 0.50 0.49 0.49 0.49 0.49 0.49 0.49 0.49 0.49 0.48 0.49 0.49 0.49 0.49 0.49 0.49
0.63 0.60 0.58 0.57 0.56 0.57 0.58 0.59 0.59 0.58 0.57 0.56 0.55 0.53 0.52 0.51 0.51 0.51 0.50 0.49 0.48 0.47 0.45 0.43 0.41 0.40 0.38 0.37 0.37 0.37 0.39 0.39 0.39 0.39 0.39 0.39 0.39 0.40 0.40 0.39 0.36 0.36 0.38 0.41 0.43 0.44 0.43 0.42 0.43 0.46 0.49 0.52 0.54 0.56 0.57 0.59 0.60 0.61 0.60 0.60 0.60 0.60 0.60 0.60 0.60 0.59 0.58 0.55 0.53 0.53 0.53 0.53 0.53 0.52 0.51 0.51 0.51 0.51 0.51 0.51 0.51 0.50 0.51 0.51 0.51
0.66 0.62 0.60 0.58 0.57 0.56 0.57 0.59 0.58 0.58 0.57 0.56 0.55 0.53 0.52 0.52 0.52 0.51 0.51 0.50 0.49 0.48 0.48 0.47 0.46 0.43 0.41 0.39 0.38 0.38 0.39 0.41 0.42 0.42 0.41 0.41 0.41 0.41 0.41 0.41 0.42 0.40 0.39 0.38 0.39 0.41 0.43 0.43 0.43 0.43 0.45 0.49 0.52 0.54 0.56 0.58 0.60 0.60 0.60 0.61 0.60 0.60 0.61 0.60 0.60 0.60 0.59 0.58 0.56 0.56 0.55 0.55 0.55 0.55 0.55 0.54 0.53 0.53 0.53 0.53 0.54 0.54 0.54 0.54 0.54
0.67 0.64 0.61 0.59 0.57 0.55 0.55 0.57 0.58 0.58 0.57 0.56 0.55 0.53 0.53 0.53 0.52 0.52 0.51 0.50 0.50 0.49 0.49 0.48 0.47 0.45 0.43 0.41 0.41 0.42 0.44 0.44 0.44 0.44 0.44 0.44 0.44 0.43 0.43 0.42 0.42 0.42 0.42 0.41 0.41 0.39 0.40 0.43 0.44 0.45 0.46 0.50 0.53 0.55 0.56 0.57 0.58 0.59 0.60 0.60 0.60 0.61 0.61 0.61 0.61 0.61 0.60 0.59 0.58 0.58 0.58 0.58 0.57 0.57 0.56 0.56 0.55 0.55 0.55 0.55 0.55 0.55 0.55 0.55 0.54
0.68 0.66 0.63 0.60 0.58 0.56 0.55 0.56 0.58 0.58 0.58 0.57 0.55 0.53 0.53 0.53 0.53 0.53 0.52 0.51 0.50 0.49 0.49 0.48 0.46 0.46 0.46 0.47 0.47 0.47 0.48 0.49 0.49 0.48 0.48 0.47 0.46 0.46 0.45 0.45 0.44 0.43 0.43 0.43 0.43 0.43 0.41 0.42 0.43 0.45 0.47 0.50 0.53 0.55 0.56 0.57 0.58 0.59 0.60 0.61 0.61 0.61 0.61 0.61 0.61 0.62 0.62 0.61 0.60 0.59 0.59 0.58 0.58 0.58 0.58 0.58 0.57 0.57 0.56 0.56 0.57 0.56 0.55 0.54 0.53
0.68 0.67 0.66 0.63 0.60 0.58 0.56 0.54 0.55 0.57 0.58 0.57 0.56 0.55 0.54 0.53 0.53 0.53 0.52 0.51 0.50 0.49 0.48 0.48 0.48 0.49 0.50 0.52 0.53 0.54 0.54 0.55 0.55 0.55 0.55 0.54 0.53 0.52 0.51 0.50 0.48 0.47 0.46 0.45 0.45 0.45 0.44 0.43 0.44 0.46 0.48 0.50 0.53 0.54 0.55 0.57 0.59 0.59 0.60 0.60 0.60 0.60 0.60 0.61 0.61 0.62 0.62 0.62 0.61 0.60 0.59 0.59 0.58 0.58 0.58 0.59 0.59 0.58 0.57 0.57 0.56 0.56 0.55 0.55 0.54
Wind_Speed
24 24 24 23 23 22 22 22 21 21 21 21 21 21 21 21 21 22 22 22 23 23 24 25 26 26 26 26 26 26 25 25 25 25 25 26 26 26 27 27 27 28 28 28 28 27 27 27 27 28 28 28 29 29 29 29 29 28 27 26 24 23 22 21 21 20 20 19 19 18 17 16 16 15 15 14 14 13 13 13 13 13 13 12 12
25 25 24 23 23 23 22 22 21 21 21 21 21 21 21 21 21 21 22 22 22 23 23 24 25 26 26 27 27 27 26 26 26 26 26 26 26 26 27 27 28 28 28 28 28 28 28 28 28 28 28 28 29 29 29 29 29 29 28 27 26 25 23 23 22 22 21 21 20 19 18 17 17 16 16 16 15 14 14 14 14 13 13 13 13
25 25 24 24 23 23 22 22 22 21 21 22 22 22 22 21 21 21 21 22 22 22 23 23 24 25 25 26 27 27 27 27 27 27 27 27 27 27 27 28 28 28 28 29 29 29 29 29 28 28 28 28 29 29 29 29 29 30 29 28 27 26 25 24 23 23 22 22 21 21 20 19 18 18 17 17 16 15 15 15 14 14 13 13 13
26 25 25 23 23 22 21 21 21 21 21 21 22 22 22 22 21 21 21 21 22 22 22 23 23 24 25 26 27 27 28 28 28 28 28 28 27 28 28 28 28 29 29 29 29 29 29 29 28 27 27 27 28 29 30 29 29 29 30 29 28 26 26 25 25 24 24 23 22 21 21 21 20 19 18 17 17 16 16 15 15 14 14 13 13
26 25 24 23 22 21 21 21 21 21 21 21 21 22 22 22 22 22 22 21 22 22 23 23 24 24 25 26 27 28 28 29 29 29 29 28 28 28 28 29 29 29 29 29 29 29 29 29 29 28 27 27 27 29 29 29 29 29 30 30 28 27 27 26 26 25 25 24 23 22 21 21 20 20 19 18 17 17 16 16 15 14 13 13 13
26 25 24 23 22 22 22 22 21 21 21 21 21 22 22 22 22 22 22 22 22 22 23 24 24 25 25 26 27 28 29 29 30 30 30 29 29 29 29 29 29 29 29 29 30 30 30 30 29 29 28 28 28 28 29 29 29 29 30 30 29 28 28 27 27 26 26 25 24 23 22 21 21 21 20 19 18 18 17 16 15 14 13 13 13
26 25 23 23 22 22 22 22 22 21 21 21 21 21 22 22 23 23 23 23 23 23 23 24 24 25 25 26 27 28 29 30 30 31 31 31 30 30 30 30 30 30 29 29 30 30 30 30 30 29 29 28 28 28 29 30 29 29 30 30 30 29 29 28 28 28 27 26 26 25 24 23 22 22 21 20 19 18 17 16 15 14 14 13 13
25 24 23 23 22 22 22 22 22 21 21 21 21 21 22 22 23 23 24 24 24 24 24 24 24 25 25 26 27 28 29 30 31 31 31 31 31 31 31 31 31 31 30 30 30 30 30 30 30 30 30 29 29 29 29 30 30 30 30 31 31 31 29 29 29 29 28 27 27 27 25 24 23 22 22 20 19 18 17 17 16 15 15 14 14
24 23 22 22 22 22 21 21 21 21 21 21 21 21 21 22 22 23 24 24 24 24 24 24 24 25 25 26 27 27 28 29 30 30 31 31 31 31 31 31 32 31 31 31 31 31 30 30 30 30 30 31 31 30 30 31 32 32 31 32 32 32 30 30 29 29 29 28 28 27 27 25 24 23 23 22 20 18 18 17 16 16 15 15 15
23 22 22 22 21 21 21 20 20 20 21 21 21 21 21 22 22 23 23 24 24 24 24 25 25 25 26 27 27 27 28 28 29 29 30 31 31 31 31 32 32 32 32 32 32 32 31 31 31 31 31 31 32 32 32 32 33 33 33 33 33 33 32 30 30 29 29 28 28 28 28 27 26 25 24 23 21 19 18 17 16 16 15 15 15
23 23 22 21 21 20 20 20 20 20 21 21 21 21 21 21 22 22 23 23 23 23 24 25 25 26 26 27 28 28 28 28 28 29 30 31 31 32 32 32 33 33 33 33 33 33 32 32 32 32 31 31 32 32 33 33 34 34 34 34 34 34 33 32 31 30 30 29 28 28 28 28 27 26 25 24 22 21 20 19 17 17 16 16 16
22 22 22 21 21 20 20 20 20 21 21 21 21 21 21 21 21 22 23 23 24 24 24 25 26 26 26 27 27 28 28 28 28 29 30 30 31 32 32 33 33 33 34 34 33 33 33 33 33 32 32 32 32 32 32 33 34 34 35 35 35 35 35 34 33 32 31 30 29 29 29 28 27 27 26 25 24 22 21 20 19 18 18 17 17
22 22 21 20 20 20 20 20 20 21 21 21 22 22 22 22 22 23 23 24 24 25 25 26 26 26 26 27 27 27 27 28 28 28 29 29 30 31 31 32 32 33 34 34 34 34 34 34 34 33 33 33 33 33 32 32 33 34 35 35 36 36 36 36 36 35 33 32 31 30 30 29 28 28 28 26 25 23 21 20 20 19 18 18 18
22 22 21 21 21 20 20 21 21 22 22 22 22 22 22 22 23 23 23 24 25 26 26 26 26 26 27 27 27 27 27 28 27 27 28 28 29 29 30 31 31 32 33 34 34 34 34 34 35 34 34 34 34 34 33 33 33 33 34 35 35 36 36 37 37 36 35 33 32 31 31 30 30 29 29 27 26 24 23 22 21 20 19 18 18
23 22 22 22 21 21 21 21 22 22 22 21 22 22 22 22 22 23 23 24 26 26 27 27 27 27 27 27 27 27 28 28 27 27 27 27 28 28 29 30 30 30 31 32 33 34 34 34 35 35 35 35 35 35 34 34 33 33 33 34 34 35 35 36 36 36 35 34 32 31 30 29 29 29 29 27 26 25 23 22 21 20 19 18 18
23 23 22 21 21 21 22 22 21 21 21 21 22 22 22 22 22 22 23 24 25 26 26 27 27 28 28 27 27 27 27 27 27 26 26 27 27 27 28 29 29 30 30 31 32 33 33 34 34 35 35 35 35 35 35 34 34 33 33 33 33 34 34 35 35 35 35 34 32 31 29 28 28 29 28 27 26 24 23 22 21 20 20 19 19
22 22 22 21 21 21 21 21 21 21 21 21 21 21 20 21 21 22 23 24 24 25 26 26 26 27 27 27 27 27 27 27 26 26 26 26 26 26 27 27 28 29 29 30 31 32 32 33 33 34 34 35 35 35 35 34 34 34 33 33 33 33 34 33 33 33 34 33 32 30 29 29 29 28 28 27 26 25 23 22 22 21 20 20 20
21 21 20 20 20 21 21 20 20 20 20 20 20 20 20 21 22 22 23 24 24 25 25 25 25 26 27 26 26 26 26 26 26 25 25 25 25 25 25 26 27 27 28 28 29 30 31 31 32 32 34 34 34 34 34 34 34 34 33 33 33 33 33 33 32 31 31 31 30 29 29 29 29 29 28 27 26 25 24 23 23 22 21 21 20
19 19 19 19 20 20 20 20 20 20 20 20 20 20 20 21 22 22 23 23 24 24 24 24 24 25 25 25 25 25 25 25 25 25 25 25 24 24 24 25 25 26 27 27 28 29 29 30 30 30 31 32 33 32 32 32 32 33 33 33 32 32 32 32 31 31 31 30 29 29 28 28 28 28 27 26 26 25 25 24 24 23 22 21 20
18 19 19 19 20 20 20 20 20 20 20 20 20 20 20 21 21 22 22 23 23 23 23 23 23 24 24 24 24 24 24 24 24 25 25 24 24 24 24 24 24 25 25 26 27 27 28 29 29 29 29 30 30 30 30 31 31 31 32 32 31 30 29 29 29 29 30 30 30 29 28 27 27 27 26 25 24 24 24 24 23 23 22 21 20
19 19 20 20 20 20 20 21 21 20 20 20 20 20 21 21 21 22 22 22 22 22 22 23 23 23 23 23 23 23 23 23 23 24 24 24 24 24 24 24 23 24 24 25 25 26 27 28 28 29 29 29 29 29 29 29 29 29 29 28 28 27 27 26 26 26 27 27 27 26 26 25 25 25 25 24 23 22 22 22 22 23 22 21 20
19 20 20 20 20 21 21 21 21 20 20 20 20 20 21 21 21 22 22 21 21 21 22 22 21 22 22 22 22 22 22 22 22 23 23 23 23 23 23 23 23 23 23 24 24 25 26 27 27 27 28 28 28 28 28 28 28 28 27 27 26 26 26 27 26 25 24 24 24 24 24 24 24 23 23 22 22 22 22 21 21 21 20 20 20
20 20 20 20 21 21 21 21 20 20 20 20 20 20 20 20 21 21 21 21 20 20 20 20 20 21 22 22 22 23 22 22 22 22 22 23 23 23 23 23 23 23 23 24 24 24 24 25 26 26 26 27 27 27 27 27 28 28 29 29 27 26 26 26 25 24 23 24 24 24 24 24 23 22 22 22 22 22 21 20 20 19 19 19 18
20 20 20 20 21 21 21 21 20 20 20 20 19 19 19 20 20 20 20 20 20 20 20 20 20 21 22 22 23 23 23 22 21 21 22 22 23 23 23 23 23 22 23 23 24 23 23 24 24 24 25 26 26 26 26 27 28 29 29 29 28 26 25 25 25 24 24 24 24 24 24 23 22 22 22 22 21 21 20 19 19 18 18 18 17
19 19 20 20 20 20 20 20 20 19 19 19 19 19 19 19 20 20 19 19 19 19 19 20 21 21 22 22 23 23 22 21 21 21 21 21 22 22 22 22 22 22 22 22 22 22 22 22 23 24 25 25 26 26 26 27 28 29 29 29 28 26 25 25 25 24 23 24 24 24 24 24 22 22 22 21 20 20 19 18 18 17 17 17 16
18 18 19 19 19 19 20 19 19 19 19 19 18 18 18 19 19 18 18 18 18 18 19 20 20 20 21 21 22 22 21 21 20 20 20 20 20 20 20 21 21 21 21 21 21 21 21 22 22 23 24 25 25 25 25 26 27 28 29 29 28 26 26 26 25 24 24 24 24 24 24 23 22 21 20 20 20 19 18 18 18 18 17 17 17
17 17 17 18 18 18 19 19 18 18 18 18 18 18 18 18 18 18 17 16 17 17 18 19 19 19 20 20 20 20 20 20 19 19 19 19 18 18 19 19 20 20 20 20 20 20 20 21 23 24 24 24 25 25 25 26 27 27 28 28 27 27 27 26 26 26 25 25 25 24 23 22 22 21 20 20 19 19 18 18 18 18 18 17 17
16 17 17 17 17 18 18 18 18 18 18 18 17 17 17 18 18 18 16 16 16 16 16 17 17 18 18 18 18 19 19 19 18 18 18 18 17 17 17 17 18 19 20 20 19 19 20 21 23 24 25 25 25 26 26 26 26 26 26 26 26 26 26 26 26 26 26 25 25 24 22 21 21 21 21 20 20 19 19 19 19 18 18 17 17
16 16 17 17 17 17 17 17 17 17 17 17 17 17 18 18 18 17 16 15 15 15 15 14 14 15 15 15 16 17 17 17 17 18 18 17 16 16 16 16 16 17 18 19 19 19 20 21 23 24 25 25 25 25 26 26 25 25 25 25 25 25 25 25 25 25 25 24 23 23 22 21 21 21 20 20 20 20 20 19 18 17 17 17 17
16 16 16 17 17 17 17 17 17 17 17 17 17 17 18 17 17 17 16 16 15 15 14 14 13 13 14 15 15 16 16 17 17 17 16 16 16 16 15 15 15 15 16 18 18 19 20 21 22 23 24 25 25 25 25 26 25 25 25 25 25 25 24 24 24 24 23 23 22 22 22 22 21 21 20 20 20 19 19 18 17 17 17 17 17
15 16 16 16 17 17 17 17 17 16 16 17 17 17 17 17 16 16 16 15 15 15 15 14 14 14 15 15 15 15 16 16 16 16 16 16 16 15 15 15 14 15 15 16 17 18 19 19 20 22 23 24 24 24 24 24 24 25 25 24 24 24 23 24 24 23 23 22 22 22 22 22 21 21 21 21 19 18 17 17 17 18 18 18 17
16 16 16 16 16 17 16 16 16 15 16 16 16 16 16 15 15 15 14 14 15 15 14 14 14 14 14 15 15 15 15 15 15 15 15 16 15 15 15 15 14 14 14 14 15 17 18 19 20 21 22 23 24 24 23 23 23 24 24 24 23 23 23 24 24 24 23 22 21 21 21 21 21 22 21 21 19 18 17 17 18 19 19 18 17
16 16 16 16 16 16 15 15 14 15 15 16 16 16 15 14 14 14 13 13 13 13 12 12 12 12 13 13 14 14 14 14 15 15 15 15 15 15 14 14 14 14 13 13 14 16 17 18 20 21 22 23 24 24 23 23 23 23 23 23 23 23 23 23 23 23 22 22 21 21 21 22 22 22 21 20 19 18 18 18 19 19 18 17 16
15 15 15 15 15 15 14 14 14 15 15 16 16 15 14 13 13 13 12 12 11 11 11 11 11 11 11 12 12 13 13 13 14 14 14 14 14 14 13 13 13 13 13 13 14 15 16 17 18 19 20 21 22 23 23 23 22 22 22 22 22 22 22 22 22 22 22 22 22 22 22 22 22 21 20 20 19 19 19 19 19 19 18 17 16
13 14 14 14 14 14 14 14 14 14 15 15 15 14 13 12 12 12 12 11 11 11 11 10 10 10 10 11 11 12 12 12 12 12 12 12 12 12 12 12 13 13 12 11 12 14 15 17 17 18 19 20 20 21 21 21 21 21 21 21 22 22 22 22 22 22 22 22 22 22 22 21 20 20 20 20 20 20 20 20 19 18 18 17 17
12 12 12 13 13 13 13 13 14 14 14 14 14 14 13 12 12 12 12 12 11 11 11 10 10 10 10 10 10 11 11 11 11 11 11 11 11 11 12 12 13 13 13 12 12 13 14 15 16 17 18 19 19 20 20 20 20 20 20 21 21 21 22 22 22 21 21 21 21 21 20 20 20 20 21 21 21 21 20 19 19 18 18 18 18
11 11 11 12 12 12 13 13 13 14 13 13 13 13 12 12 12 11 11 12 11 11 11 11 10 9 10 10 10 11 11 11 11 11 11 11 11 11 12 12 12 13 14 14 13 14 14 15 15 16 17 18 18 19 19 19 19 19 20 20 20 21 21 21 21 20 20 20 20 20 20 20 21 21 22 22 21 20 19 19 19 19 19 19 19
12 11 11 11 12 12 12 12 13 13 12 12 12 12 12 12 12 11 11 11 11 11 11 10 10 10 10 10 10 10 10 10 11 11 11 11 11 11 11 11 12 13 14 14 14 15 15 15 16 17 17 17 18 18 19 19 19 20 20 20 20 20 20 20 20 20 20 19 19 20 21 21 21 22 21 21 21 20 20 20 20 19 19 19 19
12 12 12 12 11 11 11 11 11 11 11 11 12 13 12 11 11 11 11 11 10 10 10 10 10 10 9 9 9 10 10 11 11 12 12 12 11 11 11 11 11 12 13 14 14 15 15 15 16 16 16 16 17 17 18 18 19 19 19 19 19 19 19 19 19 20 20 20 20 21 21 21 21 21 21 21 21 21 20 20 20 20 20 20 20
12 12 12 12 11 11 11 11 11 10 10 10 12 13 12 11 11 11 10 10 11 11 11 11 10 10 9 9 9 10 11 12 12 12 12 12 12 12 12 11 12 12 13 13 14 15 15 15 15 15 15 15 15 16 16 17 18 18 18 19 19 19 19 20 20 21 21 21 21 21 21 21 21 21 22 22 22 21 21 21 21 21 21 21 21
13 13 13 12 12 12 11 11 11 11 10 10 11 12 12 12 11 11 11 11 11 11 11 12 11 11 10 10 10 11 11 12 12 13 13 13 13 13 12 12 12 13 13 14 14 15 15 15 15 14 14 14 15 15 16 17 18 18 19 19 20 20 20 21 21 21 21 21 21 21 21 21 21 21 22 22 22 22 22 22 22 22 22 22 22
13 13 13 13 13 12 12 12 12 11 11 11 11 11 11 11 11 12 12 11 12 12 12 12 12 11 11 11 11 10 10 11 11 12 12 13 13 13 13 13 13 13 14 14 15 15 16 16 15 15 15 15 15 15 15 16 17 18 19 19 20 20 20 20 20 20 20 20 20 20 20 20 20 20 21 21 22 22 22 22 23 23 23 23 23
14 14 14 14 14 13 13 13 12 12 11 11 11 11 11 11 11 11 12 12 12 12 12 12 12 12 11 11 11 10 10 10 10 11 11 12 12 13 13 13 14 14 14 14 15 16 16 16 16 16 15 15 15 15 15 15 16 17 18 19 19 19 19 19 19 19 19 19 19 19 20 20 20 20 21 21 21 22 22 23 23 23 23 23 23
16 15 15 14 15 15 14 14 13 12 12 12 12 12 11 11 11 11 12 12 12 12 12 13 13 12 12 11 11 11 10 10 10 10 11 11 12 12 13 13 13 13 14 14 14 15 16 17 17 16 16 16 16 15 15 15 15 16 17 18 18 18 18 18 18 18 18 19 19 20 20 20 20 21 21 21 21 22 22 23 23 23 24 24 24
17 16 16 15 15 15 15 14 14 13 13 13 13 12 12 12 12 12 12 12 12 12 12 13 13 13 12 12 11 11 11 11 11 10 10 11 11 12 12 13 13 13 13 14 14 15 16 16 17 17 17 17 17 16 16 15 15 16 17 18 18 17 17 17 18 18 19 19 19 19 20 20 20 21 21 22 22 22 23 23 24 24 25 25 25
18 18 17 16 16 16 16 15 15 14 14 14 14 14 13 13 12 13 13 13 13 12 12 12 13 13 13 13 12 12 12 12 12 12 11 11 11 11 12 13 13 13 14 14 14 15 16 17 17 17 17 18 18 18 17 17 17 17 19 19 19 18 18 18 18 18 19 19 19 19 19 20 21 21 22 22 23 23 23 24 25 25 26 26 26
19 18 18 17 17 17 16 16 15 15 15 15 15 15 14 14 13 13 13 14 14 14 13 13 13 13 14 13 13 13 12 13 13 13 13 12 12 12 12 13 13 14 14 15 15 16 16 17 18 18 18 19 19 18 18 18 18 19 20 21 20 19 19 19 19 19 20 20 20 20 21 21 21 22 23 23 24 24 25 25 26 26 26 27 27
19 19 18 18 17 17 17 17 16 16 15 15 15 15 15 15 14 14 14 14 14 15 14 14 13 13 14 14 13 13 13 13 13 13 13 13 13 13 13 14 14 14 15 15 16 16 17 17 18 18 19 19 19 19 19 19 19 19 20 21 22 21 20 20 20 20 21 22 22 22 23 23 23 24 24 25 25 26 26 27 27 27 28 28 28
20 19 18 18 17 17 17 17 16 16 16 16 16 16 16 15 15 14 14 14 15 15 15 15 14 14 14 13 13 13 13 13 13 13 13 14 14 14 14 15 15 15 16 16 16 17 17 18 18 19 19 20 20 20 19 19 20 20 21 22 23 23 22 21 21 21 22 23 23 24 24 25 25 25 26 26 27 27 28 28 28 28 29 29 29
21 20 19 18 17 17 17 17 17 16 16 16 16 16 16 16 16 15 15 15 15 15 15 14 14 14 14 13 13 13 13 13 13 13 13 13 14 14 15 15 16 16 17 17 17 17 18 18 19 20 20 21 21 21 21 21 21 21 22 23 25 25 24 23 23 23 24 24 25 25 26 26 26 27 27 27 28 28 29 29 29 30 30 30 30
22 21 20 19 18 17 17 17 17 17 16 16 16 16 16 16 16 16 16 15 15 15 15 15 15 14 14 14 13 13 13 13 13 13 13 13 14 14 15 15 16 17 18 18 19 19 19 19 20 20 21 22 22 23 23 24 24 24 24 25 26 27 26 26 26 26 26 26 26 27 27 27 27 28 28 28 29 29 30 30 30 31 31 31 31
Wind_Direction
245 247 248 247 247 249 251 252 252 253 253 254 254 254 254 254 254 255 255 256 256 255 254 253 252 252 252 251 251 251 251 251 251 250 250 249 248 248 248 248 247 247 247 246 247 247 246 247 248 248 247 246 243 241 239 238 238 239 239 240 241 242 243 243 243 244 245 245 245 245 246 248 249 249 249 251 252 254 257 258 259 261 266 271 276
244 245 246 246 246 248 250 250 251 252 252 253 253 253 254 254 255 255 256 256 257 257 256 255 253 252 252 252 251 250 251 251 250 250 250 250 249 248 248 248 247 247 247 247 247 246 247 247 248 249 248 246 243 239 239 239 238 238 239 240 240 241 242 243 243 243 244 244 244 245 246 248 248 248 248 249 252 255 258 260 260 262 266 271 275
242 244 245 245 246 248 249 249 250 251 252 253 253 253 254 254 255 255 256 257 257 257 257 256 255 253 252 252 251 251 251 251 250 250 250 250 249 248 248 248 247 247 247 247 247 246 247 247 247 248 247 246 242 239 238 239 239 238 239 239 239 240 241 242 242 242 242 244 244 244 246 248 248 248 248 249 251 255 258 259 260 263 267 270 273
241 242 242 243 245 247 247 249 250 251 251 252 253 253 253 254 255 255 256 256 257 258 258 257 256 254 253 252 252 251 251 251 251 250 250 250 249 248 248 248 248 247 247 247 247 246 246 246 246 247 246 245 242 239 238 238 239 238 238 237 238 239 240 241 241 242 242 244 245 246 247 248 248 248 247 248 251 254 257 258 259 263 267 269 271
240 241 240 242 244 245 246 248 249 250 251 251 251 252 252 253 255 256 256 256 257 258 259 258 257 256 254 253 252 252 252 251 251 250 250 249 249 249 248 248 248 248 248 247 247 246 246 246 246 246 245 244 242 239 238 238 238 238 236 236 237 239 240 240 241 242 242 242 244 247 248 248 247 247 247 248 251 254 256 258 260 262 264 265 268
239 239 240 242 243 243 244 246 248 251 251 250 250 251 251 252 254 255 256 257 258 259 259 259 259 258 256 255 254 253 253 252 251 251 251 250 249 249 249 249 248 248 248 248 247 247 247 246 246 245 245 244 242 240 238 237 238 237 235 235 236 238 239 239 240 242 242 242 242 244 246 247 246 246 247 248 249 251 252 254 257 259 261 263 267
238 238 240 241 241 242 243 245 247 249 250 250 250 251 252 253 254 255 256 257 258 259 260 260 259 259 258 257 256 255 254 253 252 252 251 251 250 249 249 249 249 248 248 248 248 248 247 246 245 244 244 244 242 240 238 237 237 236 235 235 236 237 238 239 240 241 241 241 241 242 243 244 245 246 247 246 248 250 250 250 251 254 258 263 268
237 238 240 241 240 241 242 243 245 247 249 251 253 253 254 255 255 255 256 257 258 259 259 259 259 259 259 258 257 257 255 254 252 252 252 251 250 250 249 249 249 248 248 248 248 248 248 247 245 244 244 243 243 241 239 238 237 237 236 236 236 237 238 239 239 240 240 240 240 241 241 241 244 245 242 242 245 248 249 248 248 250 257 264 270
237 238 240 240 240 240 240 242 245 247 250 253 255 256 256 257 257 256 257 257 258 259 259 259 259 260 259 259 258 258 257 255 253 252 252 251 251 250 249 249 249 249 248 249 248 248 248 247 246 245 244 243 243 242 241 240 239 238 238 237 237 237 238 238 238 239 239 239 240 241 240 240 242 241 238 240 243 245 246 246 246 251 257 264 270
237 238 239 239 239 240 241 244 247 249 252 254 256 258 258 258 258 258 257 258 259 260 260 260 260 260 260 260 260 259 258 256 254 253 252 251 251 251 250 249 249 249 250 249 248 248 248 247 246 246 245 244 243 242 242 241 240 240 239 238 237 237 237 238 238 239 239 239 240 240 239 239 240 238 237 240 242 242 243 244 246 250 256 262 269
236 236 237 239 239 241 243 245 248 251 254 256 257 258 259 259 259 259 259 259 259 260 261 262 262 261 261 261 261 260 258 256 255 254 253 252 251 251 251 251 250 250 250 250 249 249 248 247 247 246 245 244 243 242 243 242 241 240 239 239 238 237 237 237 238 239 239 239 239 239 238 238 238 235 235 238 240 241 243 244 245 249 254 261 269
235 235 237 238 238 240 243 246 249 252 255 257 259 260 260 260 260 260 260 260 260 261 262 262 262 261 261 261 261 260 258 256 254 254 254 253 253 252 252 252 251 251 250 250 250 249 249 248 247 246 245 245 244 243 243 242 242 241 240 239 238 238 237 238 238 239 239 239 239 239 239 237 236 234 234 237 239 241 242 243 246 251 256 263 269
235 236 237 238 238 241 245 249 252 254 257 260 262 263 263 263 262 261 261 261 262 262 262 262 261 261 260 260 260 259 257 256 255 254 254 254 254 253 252 252 252 251 250 250 250 249 248 247 247 246 245 244 243 243 243 243 242 241 240 240 239 238 238 239 239 239 239 239 239 239 238 237 235 234 234 236 237 238 239 243 247 252 257 263 267
237 237 237 238 241 245 249 252 254 256 259 262 264 265 265 264 262 262 263 263 264 264 263 262 260 259 259 259 259 259 258 256 255 255 255 255 254 253 252 252 252 252 251 250 249 249 249 248 247 246 245 244 244 243 244 244 243 242 241 240 239 239 239 239 239 239 239 239 239 239 238 237 235 235 235 235 235 236 239 243 247 251 256 261 265
239 238 238 240 244 248 250 252 254 257 260 263 265 265 265 264 264 265 265 266 266 266 264 262 260 259 259 259 259 259 258 256 255 255 255 255 254 253 252 252 252 252 251 250 249 249 249 248 247 246 245 244 244 243 244 244 243 242 241 240 239 238 238 239 239 237 237 237 238 238 238 236 235 234 234 234 235 237 241 245 248 251 254 259 265
241 239 239 241 245 248 249 251 254 257 261 264 265 265 265 265 266 267 268 269 269 268 265 263 261 260 258 258 259 260 258 256 254 254 254 254 254 254 253 253 253 253 252 251 249 249 249 249 248 246 245 244 243 243 243 243 242 241 240 239 238 238 238 238 237 235 234 235 235 236 235 234 233 232 231 232 234 237 241 244 247 250 253 259 265
240 239 241 244 247 248 249 251 254 257 261 263 264 265 265 267 268 269 270 271 270 269 267 264 262 260 258 257 258 259 258 255 254 254 254 254 254 254 254 254 253 253 254 253 251 249 248 248 247 246 245 244 243 242 242 241 241 240 239 238 237 237 237 236 235 233 232 231 231 232 232 232 231 231 229 230 232 235 239 242 246 249 253 258 263
238 239 241 244 246 247 249 251 253 256 260 263 264 266 268 269 271 271 272 272 272 270 268 265 262 260 258 256 256 257 256 254 252 253 254 254 254 254 255 255 254 253 253 253 252 250 249 248 247 245 244 243 243 241 240 240 240 239 238 236 235 235 235 233 232 229 227 226 227 230 232 232 231 230 228 229 232 236 240 244 247 250 253 257 259
237 239 242 244 246 247 249 251 253 258 261 264 266 269 271 273 274 275 275 274 274 271 268 264 262 259 257 256 255 255 254 253 252 252 253 254 254 255 255 256 255 254 253 253 252 251 250 249 248 246 243 242 241 240 239 238 239 238 236 234 232 232 231 229 227 223 222 224 229 233 234 232 229 227 228 230 234 238 243 247 250 251 253 254 255
240 242 244 246 247 248 250 252 256 260 262 265 268 271 273 275 277 277 277 276 275 272 267 263 260 258 257 255 255 254 254 254 253 253 253 253 254 255 256 256 256 255 254 253 252 251 250 249 248 246 243 241 240 239 237 237 237 236 233 230 228 226 224 222 220 219 223 229 233 234 232 229 226 225 226 230 235 240 245 248 252 253 252 251 251
244 246 247 248 248 250 252 255 258 261 263 266 268 271 274 277 279 279 278 278 276 272 265 261 259 257 254 254 254 254 254 254 254 254 253 253 253 254 255 256 256 255 255 254 253 251 249 248 247 245 242 240 238 236 235 234 233 231 226 222 220 219 218 217 218 221 226 229 228 226 223 222 222 223 225 231 238 242 244 247 250 251 250 248 248
247 247 248 249 250 252 255 257 260 262 264 266 268 271 275 278 280 280 279 279 277 271 265 260 257 255 253 252 252 253 253 254 255 254 254 253 254 254 255 256 256 256 255 255 254 252 249 246 245 242 239 237 234 232 232 230 228 224 219 214 214 216 219 221 222 223 223 220 217 216 216 217 220 223 228 235 240 241 242 245 248 248 247 247 247
248 249 250 251 252 254 256 258 261 262 263 265 267 271 275 279 280 280 280 279 275 270 264 260 256 255 254 253 253 253 254 254 254 254 255 255 255 256 256 257 257 256 256 255 254 253 249 246 243 240 236 233 231 230 229 228 224 220 217 216 217 218 220 222 220 218 216 215 215 216 216 218 222 227 233 236 238 239 241 244 244 243 243 244 244
249 251 252 253 254 255 256 258 260 261 262 264 268 272 276 278 280 281 280 277 273 269 265 260 258 257 257 255 255 255 254 254 254 255 257 258 257 257 258 258 257 257 257 256 254 251 248 245 243 239 234 230 227 226 226 225 222 218 217 218 218 217 218 219 218 216 216 216 216 217 219 222 227 231 232 233 234 237 240 240 239 239 240 242 242
250 251 253 254 254 255 256 257 258 260 262 265 269 273 276 278 281 281 280 276 272 268 265 262 259 259 259 257 255 253 251 251 253 256 259 259 259 259 259 258 257 257 257 256 253 250 246 243 239 234 229 225 224 223 223 222 220 218 217 218 218 218 218 217 217 217 218 217 217 219 222 226 230 230 229 230 232 235 236 236 237 237 238 239 240
250 251 252 254 254 254 254 255 257 259 262 266 270 274 276 279 281 280 278 275 272 270 267 264 261 260 259 257 254 251 248 248 251 256 258 258 258 258 257 255 254 255 256 254 251 248 245 241 235 229 224 222 221 220 220 219 217 216 216 217 218 218 217 217 218 219 220 220 220 222 225 228 228 227 226 229 231 233 234 235 236 236 237 238 239
251 252 253 254 254 253 253 254 256 258 262 267 271 275 278 280 279 277 276 274 272 271 270 266 262 259 256 254 252 249 246 246 250 255 257 257 256 256 256 254 252 252 252 251 249 247 244 240 234 228 224 222 220 219 218 217 215 215 216 217 217 218 218 219 220 221 221 221 222 223 224 226 227 226 227 230 231 233 235 235 235 235 235 236 238
254 254 255 254 254 254 253 253 255 258 262 267 271 275 279 279 275 273 273 272 271 272 271 268 263 257 253 251 250 247 244 245 249 253 255 255 254 254 255 254 252 252 250 246 244 244 242 238 232 226 223 222 220 218 217 216 216 216 216 215 216 218 219 220 221 221 222 223 224 223 223 224 226 227 228 230 231 233 235 236 235 235 235 235 237
257 256 256 255 255 255 254 254 256 259 263 267 272 276 279 277 272 270 271 271 271 272 271 268 263 256 251 248 246 243 242 245 249 250 251 251 251 251 253 254 255 254 249 244 241 240 237 233 228 223 220 218 216 215 215 215 215 214 213 214 215 218 219 219 220 220 221 222 223 223 222 223 225 227 227 228 231 233 235 234 234 234 234 235 237
260 259 257 256 255 255 255 255 257 259 263 268 272 277 279 275 270 269 269 270 270 269 266 263 260 255 251 249 246 244 244 247 248 249 249 249 248 250 253 256 257 254 249 244 240 236 230 226 223 219 216 214 214 213 214 214 214 213 213 215 217 218 218 218 217 217 218 220 222 222 222 223 224 225 226 228 230 232 233 232 231 233 234 236 237
261 260 258 256 255 255 255 255 256 260 264 268 272 276 276 272 268 268 269 269 268 265 261 259 257 255 252 251 249 247 247 247 248 249 250 249 249 250 252 255 255 253 249 246 240 232 225 220 218 215 213 212 212 212 212 213 213 212 212 214 215 216 216 215 215 216 218 220 221 221 221 222 224 225 227 228 229 230 231 230 231 233 235 236 238
260 259 258 257 256 255 254 254 256 261 265 268 272 275 273 267 265 268 269 268 266 262 257 256 254 253 253 252 249 246 244 245 248 250 249 247 248 249 250 252 252 250 248 245 238 230 223 218 215 213 212 212 212 211 210 211 213 212 212 213 214 214 215 215 216 217 218 219 220 220 220 222 224 226 228 228 227 228 230 231 232 234 235 237 238
259 259 258 257 255 252 252 254 258 262 263 266 271 274 269 262 262 264 266 266 265 261 257 256 253 252 253 251 246 241 241 244 249 250 246 243 244 245 246 247 247 245 244 241 234 226 219 214 211 210 211 211 211 210 209 210 211 211 211 211 212 213 214 214 214 216 217 218 220 221 221 222 224 226 227 226 226 228 231 232 233 235 236 237 238
259 258 257 254 252 250 251 256 260 263 263 266 270 270 264 258 258 260 260 260 260 258 258 257 255 255 256 251 243 239 240 244 248 246 241 239 239 238 239 240 240 240 240 236 227 219 213 208 207 207 207 207 207 207 207 207 208 209 210 210 210 211 212 213 214 216 218 220 221 221 221 222 223 223 223 224 226 230 233 233 234 234 235 237 239
259 258 255 252 251 251 254 258 262 264 265 267 267 264 258 254 255 256 255 254 254 255 255 255 255 256 256 250 243 240 240 243 244 241 235 235 236 236 236 237 237 236 233 228 221 215 209 205 204 204 204 204 204 204 205 207 209 210 211 211 211 212 214 215 216 217 219 220 219 219 219 220 221 221 221 223 227 230 232 232 232 234 236 238 241
260 260 256 252 252 254 257 261 263 264 266 267 264 260 256 254 254 255 254 252 252 252 251 250 251 253 252 248 243 239 237 238 240 239 237 237 238 238 239 237 233 229 225 221 217 213 207 204 204 204 204 206 207 206 207 209 210 211 211 211 211 212 213 214 215 216 217 217 217 216 216 218 219 220 222 225 228 230 231 231 233 235 238 241 244
259 259 256 253 253 256 259 262 264 265 267 266 260 257 256 255 254 254 253 251 251 250 248 245 245 247 248 248 244 240 237 238 240 241 241 241 240 239 239 236 230 224 221 218 215 211 207 205 204 204 205 206 208 210 211 211 211 211 210 210 209 209 210 211 212 213 214 215 216 216 217 219 220 221 223 225 227 229 231 232 235 238 241 243 246
256 255 253 252 254 258 261 263 264 266 267 262 256 255 257 256 253 252 251 250 248 246 243 241 241 244 247 247 243 238 235 236 237 237 239 239 237 236 236 235 230 225 219 215 211 210 208 206 204 203 204 206 210 213 213 212 211 210 210 209 209 210 211 211 212 213 213 215 217 218 220 221 222 223 224 226 228 230 232 234 237 240 243 246 250
252 252 250 250 254 258 260 262 265 268 268 262 255 253 254 254 251 249 247 246 244 240 237 237 240 244 246 244 239 234 232 232 233 235 236 236 236 234 233 232 229 224 218 213 210 210 209 208 206 207 210 213 216 216 214 212 210 210 210 210 211 212 213 214 216 216 217 218 220 221 222 223 224 225 227 229 231 233 235 237 240 243 246 249 253
249 250 249 249 252 256 258 260 265 268 269 265 256 250 250 251 250 246 242 241 239 237 235 234 238 242 244 242 240 237 234 233 234 235 235 234 234 233 231 229 226 222 218 216 214 214 213 211 211 214 217 218 218 216 214 212 211 212 213 214 216 217 219 220 221 221 222 222 223 223 225 227 228 229 230 232 233 236 238 241 243 246 249 252 256
248 249 249 249 250 252 255 259 263 266 268 267 259 250 248 249 249 245 241 238 237 236 235 236 240 243 244 242 241 239 238 237 236 235 235 234 234 233 231 228 225 222 220 219 218 217 216 215 216 217 219 219 219 219 218 217 216 216 218 219 220 222 223 224 225 226 226 226 226 226 228 230 231 232 233 235 236 239 241 244 246 249 251 254 257
248 248 248 249 249 251 253 257 259 262 264 266 262 253 249 248 247 244 241 239 237 236 236 238 242 244 244 242 240 239 240 240 237 236 236 236 235 233 231 228 226 224 223 223 221 218 216 216 217 219 220 221 222 222 222 222 222 222 221 222 223 224 225 226 228 228 227 227 228 230 231 233 234 236 238 239 240 243 244 246 248 250 253 256 259
247 248 248 248 248 250 252 254 256 257 259 261 261 257 253 249 246 244 243 242 239 237 236 238 241 243 244 243 241 239 240 241 239 238 238 237 236 234 231 229 228 227 226 225 223 220 218 217 219 220 222 223 223 223 224 226 227 227 225 224 225 226 227 228 230 231 230 229 230 232 234 236 238 241 242 244 245 247 248 249 251 253 256 259 261
248 249 249 248 248 249 251 252 252 253 254 255 258 258 254 248 245 243 242 242 241 240 239 239 241 241 241 241 240 240 241 241 241 240 239 238 237 235 233 230 229 229 228 228 226 224 222 221 221 223 224 225 226 226 227 229 231 232 229 226 226 228 229 229 231 232 231 231 233 235 237 240 243 245 246 248 249 250 251 252 254 256 258 261 262
247 249 250 249 248 248 249 250 250 250 251 252 256 258 253 247 242 241 241 242 243 242 240 240 240 241 241 241 240 240 241 242 242 242 242 240 238 237 234 233 231 231 230 229 229 228 227 226 226 227 229 229 229 230 232 234 236 236 231 226 226 229 232 233 233 235 235 236 238 240 243 245 246 248 249 251 252 253 254 255 257 258 260 262 263
246 248 249 250 249 247 247 248 248 249 249 251 253 255 252 247 243 241 241 242 244 244 242 240 239 239 240 242 241 241 242 242 243 244 244 243 242 240 238 236 235 234 233 232 231 231 231 230 230 231 232 232 232 233 236 238 239 238 233 229 229 234 237 238 238 240 240 241 243 245 248 250 251 252 253 254 255 256 257 258 259 261 262 263 265
245 247 248 249 249 248 247 246 246 247 248 250 251 252 250 247 244 243 242 242 244 245 245 243 240 238 239 241 242 243 243 243 244 244 245 245 244 243 241 239 238 237 236 236 235 235 234 234 233 234 234 234 235 236 238 240 241 240 237 234 235 238 241 241 242 243 244 245 247 250 252 254 255 256 256 257 257 258 259 260 262 263 264 265 267
243 245 246 248 249 249 247 245 245 245 247 249 249 250 250 248 246 245 244 244 244 245 246 245 243 240 239 241 243 245 246 247 246 245 245 245 245 244 243 242 241 240 240 240 240 239 239 238 238 239 239 239 238 240 242 242 243 244 242 240 239 241 243 243 245 246 247 248 250 252 254 256 257 258 258 259 260 261 262 263 264 265 266 267 268
241 243 244 245 248 249 247 245 244 244 246 248 248 249 249 248 247 247 246 246 245 245 246 246 244 242 242 243 244 246 247 248 248 248 247 246 246 246 245 244 243 243 242 242 243 243 243 243 242 243 242 242 241 242 243 244 244 246 245 243 242 242 243 245 246 248 249 251 253 255 257 258 260 261 261 261 262 263 264 265 266 267 267 268 269
239 240 241 243 246 248 248 247 245 244 245 247 247 248 248 248 247 247 247 245 244 244 244 243 243 243 244 244 245 246 247 248 249 250 251 250 250 249 249 248 248 247 247 247 247 247 247 247 246 246 245 243 242 243 244 245 246 247 247 245 243 244 245 247 249 250 252 254 256 258 260 261 262 263 264 264 264 265 266 266 267 267 268 269 270
238 239 240 242 244 246 247 247 246 245 244 245 246 247 248 248 247 247 246 244 244 243 243 242 242 243 244 244 245 246 248 250 251 252 253 254 254 254 253 253 252 252 252 252 252 251 251 251 251 250 248 247 246 246 248 248 249 249 249 248 246 246 247 250 252 253 254 256 259 260 262 263 264 265 266 266 267 267 267 267 267 268 268 269 269